Location: Birkenwerder
(52.6919°N, 13.2774°E)
Time: 03:39:31
(UTC+00:00)

Cosmos 1570 Rocket - Pass Details

Date: 07 June 2020
Orbit: 764 x 787 km, 74.1° (Epoch: 04 July)

Event Time Altitude Azimuth Distance (km) Brightness Sun altitude
Exits shadow 00:04:57 20° 199° (SSW) 1,753 5.2 -13.4°
Maximum altitude 00:08:44 82° 113° (ESE) 789 4.0 -13.3°
Drops below altitude 10° 00:14:01 10° 27° (NNE) 2,327 7.9 -13.1°
Sets 00:16:24 0° 27° (NNE) 3,254 9.1 -13.0°
